Location: Newark
(52.3735°N, 16.9806°E)
Time: 17:38:23
(UTC+00:00)

LilacSat-2 - Pass Details

Date: 06 December 2021
Orbit: 511 x 532 km, 97.5° (Epoch: 17 January)

Event Time Altitude Azimuth Distance (km) Brightness Sun altitude
Rises 15:24:09 0° 157° (SSE) 2,633 ? -6.5°
Reaches altitude 10° 15:26:14 10° 154° (SSE) 1,754 ? -6.8°
Maximum altitude 15:29:58 65° 73° (ENE) 583 ? -7.3°
Drops below altitude 10° 15:33:47 10° 351° (N) 1,782 ? -7.8°
Sets 15:35:55 0° 349° (N) 2,680 ? -8.1°
